Registrering Status Plassering
LN-NAZ Operativ Rakkestad - ENRK 

Søk
Nye sertifikater

Sertifikater

Kontakt informasjon

Follo flyklubb.
Postboks 226, N-1401 Ski
Epost: post@follo-flyklubb.no

Tel: 64 87 13 82
Du er her: Hovedside

Hovedside

 

Follo flyklubb er en flyklubb med primærbase på Ski flyplass, og sekundærbase (vinterbase) på Rakkestad flyplass. Disse websidene er ment som en informasjonskanal til flyklubbens medlemmer, og andre som måtte være interessert i Follo flyklubbs virksomhet. Har du kommentarer eller bidrag du ønsker å dele med flyklubben, send oss en melding her.

Har noen av flyklubbens medlemmer forslag til turer, aktiviteter eller kurs- og infokvelder dere ønsker at vi deltar på eller avholder, så gi beskjed til styret via epost.

 

Før flyturen: Ta en sjekk på datoer i sertifikatene dine. Husk at det er forskjell på gyldighetsdato for PPL-sertifikatet og klasserettighet, som f.eks. SEP. Her er noen nyttige spørsmål, og litt om rettigheter her.

ENGM 240320Z 01002KT CAVOK 08/03 Q1028
ENTO 240320Z AUTO 20002KT 9999 NCD 12/09 Q1029
ENRY 240320Z AUTO 10002KT 1300NDV R12/P2000D R30/P2000N NCD 11/10 Q1029
ENSN 090850Z 20010G22KT 150V240 CAVOK 07/03 Q1000
ENCN 240320Z AUTO 05004KT 9999 OVC002/// 07/06 Q1029
ENZV 240320Z VRB02KT 9999 VCFG FEW006 08/07 Q1029
ENFL 240320Z 20009KT 9999 FEW012 BKN015 10/07 Q1029
ENFG 220850Z 19007KT CAVOK 06/M03 Q1014
ENNO 231650Z 12007KT 100V160 CAVOK 24/05 Q1024
 

Bruk av myWebLog

Follo flyklubb benytter nå myWebLog, se nyheter for mer informasjon
Logging av flyvning skal foretas ”umiddelbart” etter at flyvning har funnet sted. Da har systemet oppdatert medlemmets konto i myWebLog basert på de opplysningene som er skrevet inn i loggen. Flyets data blir også oppdatert, slik at den neste som skal ut å fly kan få en indikasjon på flyets tilstand, hvor det befinner seg og hvor lenge det er til neste service.